Find Starlink 11699

NORAD ID: 63762 Int'l Des: 2025-089 Owner: SPXS Country: US Constellation: starlink operational
LEOCIRCULAR

Live-Position

3D-Globus wird geladen...

Über Starlink 11699

Beschreibung wird geladen...

Nächste Überflüge

Passes for default location (London). Set your location on the main map for personalized predictions.

Höhenverlauf

Loading altitude history...

Zweizeiliger Elementsatz

1 63762U 25089M 26126.88428436 .00156760 00000-0 11996-2 0 9991
2 63762 43.0003 301.8554 0002134 292.1349 67.9293 15.70892719 59281
Epoch: 6. Mai 2026 • Age: 22 hours

Aktueller Status

Höhe 359.8 km
Geschwindigkeit 7.70 km/s
Subsatellitenpunkt 42.17°N, 109.45°W
Startdatum 29. Apr. 2025
Alter 1 years
Typ internet

Technische Details

Klassifizierung Payload
Masse 960.00 kg
Trockenmasse 910.00 kg
Gesamtmasse 960.00 kg
Länge 0.30 m
Durchmesser 4.10 m
Spannweite 29.00 m
Form Box + pan
Hersteller SPXS
Bus-Typ Starlink V2MD
Phasenstatus In Orbit
Besitzer/Staat SPXS/US

Most Searched